Tucson, AZ

8:08 PM MST on December 10, 2019 (GMT -0700)
Tucson International

Weather History for KTUS - August, 2019

Change the Weather History Date:

Monday, August 19, 2019

  Actual Average Record
Temperature  
Mean Temperature 92 °F 85 °F  
Max Temperature 105 °F 98 °F 110 °F (1915)
Min Temperature 79 °F 73 °F 60 °F (1924)
Degree Days  
Heating Degree Days 0 0  
Month to date heating degree days 0 0  
Since 1 June heating degree days 0 0  
Since 1 July heating degree days 0 0  
Cooling Degree Days 27 20  
Month to date cooling degree days 468 386  
Year to date cooling degree days 2245 2165  
Since 1 June cooling degree days 1873 1663  
Growing Degree Days 42 (Base 50)    
Moisture  
Dew Point 47 °F    
Average Humidity 24    
Maximum Humidity 48    
Minimum Humidity 6    
Precipitation  
Precipitation 0.00 in 0.08 in 0.84 in (1920)
Month to date precipitation 1.15 1.54  
Year to date precipitation 7.25 7.06  
Sea Level Pressure  
Sea Level Pressure 29.80 in    
Wind  
Wind Speed 5 mph (NNW)    
Max Wind Speed 14 mph    
Max Gust Speed 19 mph    
Visibility 10 miles    
Events      
T = Trace of Precipitation, MM = Missing Value Source: NWS Daily Summary

Daily Weather History Graph

Daily Weather History Graph

Search for Another Location

Airport or City:

Astronomy

Aug. 19, 2019 Rise Set
Actual Time 5:50 AM MST 7:03 PM MST
Civil Twilight 5:25 AM MST 7:29 PM MST
Nautical Twilight 4:54 AM MST 7:59 PM MST
Astronomical Twilight 4:23 AM MST 8:30 PM MST
Moon 9:39 PM MST (8/19) 9:23 AM MST (8/19)
Length of Visible Light 14h 04m
Length of Day
13h 12m
Waning Gibbous, 84% of the Moon is Illuminated
Aug 19
Waning Gibbous
Aug 23
Last Quarter
Aug 30
New
Sep 5
First Quarter
Sep 13
Full

Hourly Weather History & Observations

Time (MST) Temp. Heat Index Dew Point Humidity Pressure Visibility Wind Dir Wind Speed Gust Speed Precip Events Conditions
12:53 AM 84.0 °F 83.3 °F 57.0 °F 40% 29.81 in 10.0 mi SSE 3.5 mph - N/A   Clear
1:53 AM 82.9 °F 82.4 °F 57.0 °F 41% 29.81 in 10.0 mi SE 6.9 mph - N/A   Clear
2:53 AM 82.9 °F 82.4 °F 57.0 °F 41% 29.80 in 10.0 mi SE 5.8 mph - N/A   Clear
3:53 AM 81.0 °F 81.1 °F 57.9 °F 45% 29.81 in 10.0 mi Calm Calm - N/A   Clear
4:53 AM 81.0 °F 81.0 °F 57.0 °F 44% 29.82 in 10.0 mi Calm Calm - N/A   Clear
5:53 AM 79.0 °F - 57.9 °F 48% 29.84 in 10.0 mi SE 3.5 mph - N/A   Clear
6:53 AM 80.1 °F 80.6 °F 57.9 °F 47% 29.86 in 10.0 mi SE 4.6 mph - N/A   Clear
7:53 AM 84.0 °F 83.5 °F 57.9 °F 41% 29.87 in 10.0 mi Calm Calm - N/A   Clear
8:53 AM 87.1 °F 86.1 °F 57.9 °F 37% 29.87 in 10.0 mi SSW 5.8 mph - N/A   Clear
9:53 AM 91.0 °F 88.9 °F 55.0 °F 29% 29.88 in 10.0 mi NW 4.6 mph - N/A   Clear
10:53 AM 96.1 °F - 48.0 °F 19% 29.86 in 10.0 mi Calm Calm - N/A   Clear
11:53 AM 99.0 °F - 48.0 °F 18% 29.84 in 10.0 mi NNE 4.6 mph - N/A   Clear
12:53 PM 100.0 °F - 46.9 °F 16% 29.82 in 10.0 mi NNW 5.8 mph - N/A   Clear
1:53 PM 100.0 °F - 42.1 °F 14% 29.80 in 10.0 mi North - - N/A   Clear
2:53 PM 102.9 °F - 43.0 °F 13% 29.77 in 10.0 mi North 5.8 mph - N/A   Clear
3:53 PM 102.9 °F - 44.1 °F 14% 29.75 in 10.0 mi Variable 4.6 mph - N/A   Clear
4:53 PM 102.9 °F - 39.9 °F 12% 29.74 in 10.0 mi NNW 8.1 mph 19.6 mph N/A   Clear
5:53 PM 102.0 °F - 39.0 °F 11% 29.74 in 10.0 mi NNW 11.5 mph - N/A   Clear
6:53 PM 99.0 °F - 37.9 °F 12% 29.74 in 10.0 mi NNW 11.5 mph - N/A   Clear
7:53 PM 96.1 °F - 35.1 °F 12% 29.76 in 10.0 mi NNW 6.9 mph - N/A   Clear
8:53 PM 93.9 °F - 34.0 °F 12% 29.78 in 10.0 mi NNW 9.2 mph - N/A   Clear
9:53 PM 91.0 °F - 35.1 °F 14% 29.78 in 10.0 mi NW 5.8 mph - N/A   Clear
10:53 PM 89.1 °F - 37.0 °F 16% 29.78 in 10.0 mi SW 3.5 mph - N/A   Clear
11:53 PM 84.9 °F - 39.9 °F 20% 29.78 in 10.0 mi SSE 5.8 mph - N/A   Clear